Total_Precipitation_Accumulation
0.94 1.03 1.06 0.85 0.61 0.49 0.48 0.46 0.45 0.47 0.53 0.61 0.56 0.53 0.58 0.63 0.61 0.69 0.79 0.91 1.01 1.07 1.09 1.14 1.20 1.26 1.35 1.40 1.52 1.59 1.63 1.59 1.37 1.21 1.08 1.06 1.09 1.08 1.09 1.02 1.07 1.09 0.98
0.81 0.79 0.65 0.47 0.38 0.35 0.31 0.26 0.22 0.22 0.22 0.29 0.32 0.33 0.40 0.52 0.55 0.61 0.65 0.67 0.74 0.79 0.85 0.92 0.96 1.01 1.11 1.19 1.28 1.37 1.50 1.54 1.45 1.29 1.18 1.11 1.02 1.03 1.18 1.23 1.21 1.13 1.10
0.44 0.42 0.39 0.32 0.30 0.26 0.22 0.19 0.17 0.17 0.16 0.20 0.23 0.26 0.30 0.40 0.51 0.57 0.59 0.56 0.55 0.53 0.55 0.62 0.70 0.78 0.92 1.00 1.06 1.15 1.32 1.36 1.43 1.33 1.27 1.21 1.07 1.01 1.17 1.19 1.27 1.42 1.29
0.26 0.23 0.23 0.23 0.23 0.23 0.23 0.24 0.18 0.15 0.16 0.15 0.14 0.16 0.24 0.35 0.43 0.51 0.55 0.53 0.49 0.49 0.50 0.51 0.55 0.57 0.65 0.77 0.90 1.09 1.27 1.39 1.44 1.38 1.33 1.29 1.23 1.15 1.22 1.30 1.38 1.48 1.50
0.17 0.16 0.18 0.18 0.19 0.18 0.20 0.20 0.17 0.14 0.12 0.08 0.06 0.08 0.16 0.22 0.27 0.40 0.46 0.46 0.48 0.46 0.47 0.52 0.54 0.50 0.50 0.55 0.56 0.75 0.97 1.21 1.33 1.39 1.40 1.41 1.36 1.31 1.25 1.35 1.42 1.57 1.68
0.05 0.06 0.08 0.11 0.13 0.15 0.15 0.15 0.13 0.11 0.09 0.07 0.05 0.06 0.08 0.08 0.14 0.22 0.30 0.40 0.47 0.50 0.51 0.56 0.54 0.49 0.54 0.52 0.50 0.53 0.64 0.79 0.97 1.11 1.20 1.25 1.30 1.40 1.51 1.52 1.50 1.58 1.65
0.02 0.02 0.03 0.04 0.05 0.05 0.05 0.06 0.05 0.04 0.04 0.04 0.04 0.05 0.04 0.04 0.05 0.09 0.19 0.35 0.48 0.49 0.48 0.63 0.69 0.63 0.62 0.65 0.66 0.60 0.54 0.54 0.69 0.87 1.00 1.05 1.13 1.25 1.49 1.53 1.52 1.55 1.47
0.02 0.02 0.02 0.02 0.03 0.03 0.02 0.02 0.02 0.02 0.02 0.03 0.05 0.07 0.05 0.02 0.03 0.04 0.10 0.25 0.39 0.43 0.44 0.57 0.82 0.86 0.75 0.71 0.75 0.85 0.77 0.62 0.61 0.66 0.81 0.92 0.97 1.14 1.48 1.71 1.65 1.44 1.39
0.03 0.02 0.02 0.02 0.03 0.03 0.03 0.02 0.02 0.02 0.03 0.03 0.04 0.06 0.05 0.05 0.04 0.05 0.09 0.19 0.29 0.34 0.38 0.50 0.67 0.83 0.76 0.71 0.71 0.79 0.83 0.73 0.67 0.68 0.65 0.73 0.85 1.02 1.29 1.56 1.67 1.60 1.44
0.03 0.04 0.04 0.03 0.04 0.04 0.04 0.04 0.04 0.04 0.04 0.04 0.03 0.03 0.03 0.03 0.05 0.06 0.08 0.13 0.18 0.18 0.25 0.41 0.56 0.55 0.52 0.59 0.70 0.81 0.90 0.75 0.65 0.74 0.73 0.75 0.78 0.96 1.28 1.50 1.62 1.60 1.47
0.04 0.05 0.05 0.04 0.04 0.07 0.08 0.06 0.05 0.05 0.05 0.05 0.05 0.05 0.05 0.05 0.05 0.07 0.09 0.10 0.13 0.13 0.19 0.33 0.41 0.37 0.37 0.46 0.57 0.70 0.83 0.69 0.71 0.86 0.90 0.88 0.95 1.00 1.12 1.27 1.47 1.58 1.48
0.05 0.06 0.06 0.07 0.07 0.09 0.09 0.07 0.06 0.06 0.06 0.07 0.09 0.10 0.10 0.10 0.08 0.07 0.09 0.11 0.13 0.14 0.20 0.26 0.30 0.27 0.28 0.33 0.38 0.49 0.60 0.68 0.77 0.91 0.98 0.94 0.91 0.97 1.03 1.07 1.18 1.29 1.28
0.06 0.06 0.07 0.07 0.07 0.08 0.08 0.07 0.06 0.07 0.08 0.09 0.11 0.12 0.14 0.14 0.11 0.08 0.08 0.10 0.14 0.16 0.19 0.23 0.24 0.26 0.29 0.31 0.32 0.39 0.54 0.73 0.91 0.92 0.84 0.82 0.85 0.90 0.91 1.03 1.10 1.15 1.17
0.09 0.08 0.07 0.07 0.07 0.07 0.07 0.06 0.05 0.06 0.06 0.07 0.08 0.10 0.11 0.13 0.09 0.08 0.11 0.12 0.14 0.16 0.19 0.20 0.20 0.26 0.29 0.29 0.35 0.46 0.63 0.82 0.90 0.82 0.76 0.67 0.69 0.83 0.89 0.91 0.95 0.97 1.03
0.11 0.09 0.08 0.07 0.06 0.07 0.06 0.05 0.04 0.04 0.05 0.06 0.07 0.09 0.07 0.07 0.08 0.09 0.11 0.12 0.13 0.13 0.17 0.24 0.28 0.35 0.40 0.47 0.57 0.66 0.68 0.72 0.77 0.70 0.74 0.68 0.64 0.71 0.75 0.76 0.78 0.75 0.76
0.10 0.09 0.07 0.06 0.05 0.05 0.06 0.05 0.05 0.04 0.04 0.03 0.04 0.05 0.07 0.05 0.07 0.08 0.10 0.11 0.11 0.13 0.21 0.29 0.37 0.45 0.51 0.59 0.65 0.66 0.66 0.67 0.70 0.67 0.66 0.65 0.60 0.60 0.62 0.63 0.67 0.70 0.73
0.07 0.07 0.07 0.07 0.05 0.05 0.06 0.07 0.07 0.06 0.05 0.04 0.04 0.04 0.05 0.06 0.06 0.07 0.09 0.10 0.11 0.14 0.19 0.30 0.49 0.54 0.53 0.59 0.63 0.62 0.53 0.48 0.49 0.51 0.51 0.49 0.47 0.48 0.51 0.53 0.55 0.61 0.64
0.07 0.09 0.08 0.07 0.06 0.06 0.05 0.05 0.06 0.07 0.08 0.07 0.06 0.06 0.06 0.07 0.07 0.08 0.09 0.11 0.11 0.12 0.14 0.21 0.34 0.39 0.42 0.48 0.48 0.46 0.39 0.33 0.33 0.34 0.34 0.36 0.37 0.39 0.40 0.44 0.44 0.44 0.50
0.05 0.07 0.08 0.08 0.08 0.08 0.07 0.07 0.07 0.06 0.06 0.08 0.09 0.08 0.08 0.08 0.08 0.08 0.09 0.10 0.11 0.12 0.15 0.19 0.24 0.27 0.28 0.28 0.29 0.30 0.30 0.31 0.30 0.30 0.32 0.33 0.35 0.36 0.35 0.34 0.38 0.41 0.41
0.04 0.05 0.06 0.07 0.08 0.09 0.10 0.10 0.10 0.10 0.10 0.09 0.09 0.10 0.11 0.11 0.11 0.11 0.11 0.11 0.12 0.13 0.14 0.15 0.17 0.17 0.19 0.20 0.21 0.25 0.27 0.31 0.32 0.32 0.31 0.33 0.35 0.36 0.34 0.33 0.33 0.34 0.36
0.04 0.05 0.05 0.05 0.06 0.08 0.10 0.11 0.13 0.14 0.14 0.13 0.12 0.13 0.14 0.14 0.15 0.15 0.15 0.15 0.15 0.16 0.15 0.15 0.15 0.16 0.18 0.20 0.24 0.25 0.27 0.30 0.33 0.33 0.34 0.35 0.36 0.37 0.37 0.37 0.36 0.36 0.37
0.04 0.04 0.05 0.05 0.06 0.08 0.08 0.08 0.09 0.10 0.12 0.13 0.14 0.15 0.17 0.17 0.18 0.18 0.18 0.17 0.17 0.17 0.18 0.18 0.18 0.19 0.21 0.23 0.26 0.29 0.30 0.32 0.34 0.35 0.37 0.38 0.40 0.40 0.39 0.40 0.41 0.42 0.42
0.05 0.05 0.05 0.05 0.06 0.07 0.08 0.08 0.09 0.10 0.12 0.13 0.14 0.16 0.18 0.18 0.18 0.18 0.18 0.17 0.17 0.18 0.19 0.20 0.20 0.20 0.22 0.25 0.28 0.31 0.33 0.34 0.39 0.43 0.46 0.45 0.45 0.44 0.43 0.43 0.43 0.45 0.46
0.04 0.04 0.04 0.05 0.06 0.07 0.08 0.08 0.09 0.11 0.12 0.13 0.14 0.15 0.16 0.17 0.18 0.19 0.19 0.18 0.19 0.19 0.20 0.22 0.23 0.23 0.23 0.26 0.29 0.33 0.36 0.38 0.42 0.48 0.54 0.56 0.52 0.48 0.48 0.45 0.44 0.44 0.48
0.04 0.04 0.04 0.05 0.06 0.08 0.08 0.09 0.10 0.11 0.12 0.14 0.15 0.16 0.17 0.16 0.18 0.20 0.22 0.21 0.20 0.20 0.21 0.24 0.26 0.27 0.26 0.28 0.31 0.35 0.41 0.42 0.43 0.46 0.53 0.58 0.57 0.55 0.53 0.51 0.49 0.47 0.49
0.03 0.03 0.05 0.06 0.07 0.08 0.09 0.10 0.12 0.13 0.15 0.16 0.17 0.19 0.20 0.20 0.20 0.21 0.22 0.22 0.21 0.20 0.21 0.23 0.26 0.27 0.28 0.29 0.31 0.37 0.43 0.41 0.42 0.46 0.50 0.56 0.60 0.59 0.59 0.60 0.57 0.56 0.55